• En Colombia
  • Lista de países
  • Para 7 días
  • Temperatura del agua
  • El tiempo en el mapa
  • Informadores
  • user-avatar
    Iniciar sesión

    Tiempo cada hora Podgorica

    Hoy, 12 Diciembre, Jueves

    Tiempo Temperatura Precipitaciones Viento Presión Humedad
    00:00 +6°C° 0 mm 2 mps 749 mmHg 79%
    01:00 +6°C° 0 mm 2 mps 749 mmHg 78%
    02:00 +7°C° 0 mm 1 mps 748 mmHg 77%
    03:00 +7°C° 0 mm 1 mps 748 mmHg 77%
    04:00 +7°C° 0 mm 1 mps 747 mmHg 76%
    05:00 +7°C° 0 mm 1 mps 747 mmHg 76%
    06:00 +8°C° 0 mm 1 mps 747 mmHg 75%
    07:00 +8°C° 0 mm 1 mps 747 mmHg 75%
    08:00 +9°C° 0 mm 1 mps 747 mmHg 75%
    09:00 +10°C° 0 mm 1 mps 747 mmHg 74%
    10:00 +11°C° 0 mm 1 mps 747 mmHg 74%
    11:00 +11°C° 0 mm 1 mps 746 mmHg 76%
    12:00 +11°C° 0 mm 1 mps 746 mmHg 78%
    13:00 +11°C° 0 mm 1 mps 746 mmHg 80%
    14:00 +11°C° 0.1 mm 1 mps 745 mmHg 83%
    15:00 +10°C° 0.1 mm 1 mps 745 mmHg 85%
    16:00 +10°C° 0.1 mm 1 mps 745 mmHg 88%
    17:00 +10°C° 0.4 mm 1 mps 745 mmHg 90%
    18:00 +10°C° 0.4 mm 1 mps 745 mmHg 92%
    19:00 +9°C° 0.4 mm 1 mps 745 mmHg 93%
    20:00 +9°C° 0.3 mm 1 mps 745 mmHg 94%
    21:00 +10°C° 0.3 mm 1 mps 744 mmHg 94%
    22:00 +10°C° 0.3 mm 1 mps 744 mmHg 95%
    23:00 +9°C° 1.8 mm 2 mps 744 mmHg 95%

    Mañana, 13 Diciembre, Viernes

    Tiempo Temperatura Precipitaciones Viento Presión Humedad
    00:00 +9°C° 1.8 mm 2 mps 744 mmHg 96%
    01:00 +8°C° 1.8 mm 2 mps 743 mmHg 96%
    02:00 +9°C° 1.4 mm 2 mps 743 mmHg 96%
    03:00 +9°C° 1.4 mm 3 mps 743 mmHg 95%
    04:00 +9°C° 1.4 mm 3 mps 742 mmHg 95%
    05:00 +8°C° 0.6 mm 3 mps 743 mmHg 94%
    06:00 +8°C° 0.6 mm 2 mps 743 mmHg 93%
    07:00 +8°C° 0.6 mm 2 mps 743 mmHg 92%
    08:00 +8°C° 0.4 mm 2 mps 743 mmHg 92%
    09:00 +9°C° 0.4 mm 2 mps 742 mmHg 92%
    10:00 +9°C° 0.4 mm 3 mps 742 mmHg 92%
    11:00 +9°C° 0.5 mm 3 mps 742 mmHg 90%
    12:00 +10°C° 0.5 mm 3 mps 741 mmHg 88%
    13:00 +10°C° 0.5 mm 3 mps 741 mmHg 86%
    14:00 +10°C° 0.2 mm 3 mps 741 mmHg 86%
    15:00 +9°C° 0.2 mm 3 mps 740 mmHg 86%
    16:00 +9°C° 0.2 mm 3 mps 739 mmHg 86%
    17:00 +9°C° 0.9 mm 3 mps 739 mmHg 89%
    18:00 +9°C° 0.9 mm 3 mps 738 mmHg 92%
    19:00 +8°C° 0.9 mm 4 mps 738 mmHg 95%
    20:00 +8°C° 2.5 mm 4 mps 737 mmHg 95%
    21:00 +8°C° 2.5 mm 5 mps 736 mmHg 95%
    22:00 +9°C° 2.5 mm 5 mps 735 mmHg 95%
    23:00 +9°C° 1.4 mm 5 mps 734 mmHg 94%

    Pasado mañana, 14 Diciembre, Sábado

    Tiempo Temperatura Precipitaciones Viento Presión Humedad
    00:00 +10°C° 1.4 mm 4 mps 734 mmHg 93%
    01:00 +10°C° 1.4 mm 3 mps 733 mmHg 92%
    02:00 +9°C° 2.6 mm 3 mps 733 mmHg 93%
    03:00 +9°C° 2.6 mm 3 mps 733 mmHg 94%
    04:00 +9°C° 2.6 mm 3 mps 734 mmHg 95%
    05:00 +9°C° 0.6 mm 2 mps 735 mmHg 94%
    06:00 +9°C° 0.6 mm 2 mps 736 mmHg 92%
    07:00 +9°C° 0.6 mm 2 mps 737 mmHg 91%
    08:00 +10°C° 0 mm 2 mps 738 mmHg 88%
    09:00 +10°C° 0 mm 2 mps 739 mmHg 86%
    10:00 +11°C° 0 mm 3 mps 740 mmHg 83%
    11:00 +12°C° 0 mm 3 mps 741 mmHg 80%
    12:00 +12°C° 0 mm 3 mps 742 mmHg 78%
    13:00 +12°C° 0 mm 3 mps 743 mmHg 76%
    14:00 +12°C° 0 mm 3 mps 744 mmHg 78%
    15:00 +11°C° 0 mm 3 mps 745 mmHg 80%
    16:00 +10°C° 0 mm 3 mps 746 mmHg 81%
    17:00 +10°C° 0 mm 4 mps 747 mmHg 82%
    18:00 +8°C° 0 mm 4 mps 748 mmHg 82%
    19:00 +8°C° 0 mm 4 mps 749 mmHg 83%
    20:00 +8°C° 0 mm 4 mps 750 mmHg 82%
    21:00 +9°C° 0 mm 3 mps 751 mmHg 82%
    22:00 +9°C° 0 mm 3 mps 752 mmHg 82%
    23:00 +8°C° 0 mm 3 mps 753 mmHg 81%

    15 Diciembre, Domingo

    Tiempo Temperatura Precipitaciones Viento Presión Humedad
    00:00 +8°C° 0 mm 3 mps 753 mmHg 81%
    01:00 +8°C° 0 mm 3 mps 754 mmHg 81%
    02:00 +8°C° 0 mm 3 mps 754 mmHg 79%
    03:00 +8°C° 0 mm 3 mps 754 mmHg 76%
    04:00 +8°C° 0 mm 3 mps 755 mmHg 74%
    05:00 +8°C° 0 mm 3 mps 755 mmHg 71%
    06:00 +8°C° 0 mm 3 mps 755 mmHg 68%
    07:00 +8°C° 0 mm 3 mps 756 mmHg 65%
    08:00 +9°C° 0 mm 2 mps 756 mmHg 65%
    09:00 +12°C° 0 mm 2 mps 756 mmHg 65%
    10:00 +14°C° 0 mm 1 mps 756 mmHg 66%
    11:00 +14°C° 0 mm 1 mps 756 mmHg 65%
    12:00 +15°C° 0 mm 1 mps 756 mmHg 64%
    13:00 +15°C° 0 mm 0 mps 756 mmHg 63%
    14:00 +14°C° 0 mm 0 mps 756 mmHg 65%
    15:00 +13°C° 0 mm 0 mps 757 mmHg 67%
    16:00 +12°C° 0 mm 0 mps 757 mmHg 70%
    17:00 +12°C° 0 mm 1 mps 758 mmHg 69%
    18:00 +12°C° 0 mm 1 mps 758 mmHg 68%
    19:00 +12°C° 0 mm 1 mps 759 mmHg 67%
    20:00 +12°C° 0 mm 1 mps 759 mmHg 68%
    21:00 +12°C° 0 mm 1 mps 759 mmHg 70%
    22:00 +12°C° 0 mm 1 mps 760 mmHg 71%
    23:00 +12°C° 0 mm 1 mps 760 mmHg 73%

    16 Diciembre, Lunes

    Tiempo Temperatura Precipitaciones Viento Presión Humedad
    00:00 +11°C° 0 mm 1 mps 760 mmHg 76%
    01:00 +11°C° 0 mm 1 mps 760 mmHg 78%
    02:00 +11°C° 0 mm 1 mps 760 mmHg 80%
    03:00 +11°C° 0 mm 1 mps 760 mmHg 82%
    04:00 +11°C° 0 mm 1 mps 760 mmHg 85%
    05:00 +11°C° 0 mm 1 mps 761 mmHg 86%
    06:00 +11°C° 0 mm 1 mps 761 mmHg 88%
    07:00 +11°C° 0 mm 1 mps 761 mmHg 89%
    08:00 +12°C° 0 mm 1 mps 761 mmHg 88%
    09:00 +13°C° 0 mm 1 mps 761 mmHg 87%
    10:00 +14°C° 0 mm 1 mps 762 mmHg 86%
    11:00 +15°C° 0 mm 1 mps 761 mmHg 85%
    12:00 +15°C° 0 mm 1 mps 761 mmHg 85%
    13:00 +15°C° 0 mm 1 mps 760 mmHg 85%
    14:00 +15°C° 0 mm 1 mps 760 mmHg 87%
    15:00 +14°C° 0 mm 1 mps 760 mmHg 89%
    16:00 +13°C° 0 mm 1 mps 760 mmHg 91%
    17:00 +13°C° 0 mm 1 mps 761 mmHg 90%
    18:00 +12°C° 0 mm 1 mps 761 mmHg 89%
    19:00 +12°C° 0 mm 1 mps 761 mmHg 88%
    20:00 +12°C° 0 mm 1 mps 761 mmHg 88%
    21:00 +12°C° 0 mm 1 mps 761 mmHg 87%
    22:00 +11°C° 0 mm 1 mps 761 mmHg 86%
    23:00 +11°C° 0 mm 1 mps 761 mmHg 86%

    17 Diciembre, Martes

    Tiempo Temperatura Precipitaciones Viento Presión Humedad
    00:00 +11°C° 0 mm 1 mps 761 mmHg 87%
    01:00 +11°C° 0 mm 1 mps 760 mmHg 87%
    02:00 +11°C° 0 mm 1 mps 760 mmHg 87%
    03:00 +11°C° 0 mm 1 mps 760 mmHg 86%
    04:00 +11°C° 0 mm 1 mps 760 mmHg 86%
    05:00 +11°C° 0 mm 1 mps 760 mmHg 85%
    06:00 +11°C° 0 mm 1 mps 760 mmHg 84%
    07:00 +11°C° 0 mm 1 mps 760 mmHg 82%
    08:00 +12°C° 0 mm 1 mps 760 mmHg 80%
    09:00 +13°C° 0 mm 1 mps 761 mmHg 77%
    10:00 +15°C° 0 mm 1 mps 761 mmHg 74%
    11:00 +15°C° 0 mm 1 mps 760 mmHg 73%
    12:00 +15°C° 0 mm 1 mps 760 mmHg 72%
    13:00 +16°C° 0 mm 1 mps 759 mmHg 70%
    14:00 +15°C° 0 mm 1 mps 759 mmHg 73%
    15:00 +13°C° 0 mm 0 mps 759 mmHg 76%
    16:00 +12°C° 0 mm 0 mps 760 mmHg 79%
    17:00 +12°C° 0 mm 0 mps 760 mmHg 76%
    18:00 +12°C° 0 mm 1 mps 760 mmHg 73%
    19:00 +12°C° 0 mm 1 mps 760 mmHg 71%
    20:00 +12°C° 0 mm 1 mps 760 mmHg 70%
    21:00 +12°C° 0 mm 1 mps 760 mmHg 69%
    22:00 +12°C° 0 mm 1 mps 761 mmHg 68%
    23:00 +11°C° 0 mm 1 mps 761 mmHg 70%
    Mostrar más